Time,TemperatureF,DewpointF,PressureIn,WindDirection,WindDirectionDegrees,WindSpeedMPH,WindSpeedGustMPH,Humidity,HourlyPrecipIn,Conditions,Clouds,dailyrainin,SoftwareType,DateUTC
2013-07-26 00:12:00,69.3,63.0,29.89,West,270,0.0,2.0,79,0.00,,,0.00,weatherlink.com 1.10,2013-07-26 05:12:00,
2013-07-26 00:27:00,68.5,63.0,29.89,WSW,240,2.0,2.0,82,0.00,,,0.00,weatherlink.com 1.10,2013-07-26 05:27:00,
2013-07-26 00:42:00,67.9,63.0,29.89,WSW,254,2.0,4.0,85,0.00,,,0.00,weatherlink.com 1.10,2013-07-26 05:42:00,
2013-07-26 00:57:00,67.2,63.0,29.88,WSW,247,2.0,4.0,87,0.00,,,0.00,weatherlink.com 1.10,2013-07-26 05:57:00,
2013-07-26 01:12:00,66.7,63.0,29.88,WSW,255,1.0,2.0,87,0.00,,,0.00,weatherlink.com 1.10,2013-07-26 06:12:00,
2013-07-26 01:27:00,65.1,62.0,29.88,SW,215,3.0,3.0,90,0.00,,,0.00,weatherlink.com 1.10,2013-07-26 06:27:00,
2013-07-26 01:42:00,64.5,62.0,29.89,WSW,241,3.0,3.0,92,0.00,,,0.00,weatherlink.com 1.10,2013-07-26 06:42:00,
2013-07-26 01:57:00,64.6,63.0,29.88,WSW,248,2.0,5.0,93,0.00,,,0.00,weatherlink.com 1.10,2013-07-26 06:57:00,
2013-07-26 02:12:00,64.4,62.0,29.88,WSW,251,1.0,4.0,93,0.00,,,0.00,weatherlink.com 1.10,2013-07-26 07:12:00,
2013-07-26 02:27:00,64.9,60.0,29.88,West,265,0.0,7.0,85,0.00,,,0.00,weatherlink.com 1.10,2013-07-26 07:27:00,
2013-07-26 02:42:00,64.5,59.0,29.88,NNW,335,2.0,2.0,82,0.00,,,0.00,weatherlink.com 1.10,2013-07-26 07:42:00,
2013-07-26 02:57:00,64.5,58.0,29.88,West,265,0.0,5.0,79,0.00,,,0.00,weatherlink.com 1.10,2013-07-26 07:57:00,
2013-07-26 03:12:00,64.3,57.0,29.88,WSW,244,1.0,5.0,78,0.00,,,0.00,weatherlink.com 1.10,2013-07-26 08:12:00,
2013-07-26 03:28:00,64.1,56.0,29.88,West,277,3.0,4.0,76,0.00,,,0.00,weatherlink.com 1.10,2013-07-26 08:28:00,
2013-07-26 03:42:00,64.2,56.0,29.88,West,277,2.0,6.0,75,0.00,,,0.00,weatherlink.com 1.10,2013-07-26 08:42:00,
2013-07-26 03:58:00,63.9,56.0,29.89,West,270,2.0,6.0,76,0.00,,,0.00,weatherlink.com 1.10,2013-07-26 08:58:00,
2013-07-26 04:12:00,63.4,56.0,29.89,West,268,3.0,8.0,76,0.00,,,0.00,weatherlink.com 1.10,2013-07-26 09:12:00,
2013-07-26 04:28:00,62.7,55.0,29.89,WNW,297,3.0,8.0,77,0.00,,,0.00,weatherlink.com 1.10,2013-07-26 09:28:00,
2013-07-26 04:42:00,61.8,55.0,29.89,WNW,285,2.0,7.0,79,0.00,,,0.00,weatherlink.com 1.10,2013-07-26 09:42:00,
2013-07-26 04:58:00,61.1,55.0,29.89,WNW,282,1.0,6.0,80,0.00,,,0.00,weatherlink.com 1.10,2013-07-26 09:58:00,
2013-07-26 05:13:00,60.3,55.0,29.89,West,270,0.0,5.0,82,0.00,,,0.00,weatherlink.com 1.10,2013-07-26 10:13:00,
2013-07-26 05:28:00,59.6,54.0,29.89,WNW,284,0.0,4.0,83,0.00,,,0.00,weatherlink.com 1.10,2013-07-26 10:28:00,
2013-07-26 05:43:00,59.1,55.0,29.89,West,270,1.0,3.0,85,0.00,,,0.00,weatherlink.com 1.10,2013-07-26 10:43:00,
2013-07-26 05:58:00,58.6,55.0,29.90,WNW,282,0.0,3.0,86,0.00,,,0.00,weatherlink.com 1.10,2013-07-26 10:58:00,
2013-07-26 06:13:00,58.6,55.0,29.90,West,270,0.0,5.0,87,0.00,,,0.00,weatherlink.com 1.10,2013-07-26 11:13:00,
2013-07-26 06:28:00,58.8,55.0,29.91,WNW,301,3.0,6.0,87,0.00,,,0.00,weatherlink.com 1.10,2013-07-26 11:28:00,
2013-07-26 06:43:00,59.3,55.0,29.90,WNW,300,0.0,6.0,86,0.00,,,0.00,weatherlink.com 1.10,2013-07-26 11:43:00,
2013-07-26 06:58:00,59.5,55.0,29.90,West,261,5.0,10.0,85,0.00,,,0.00,weatherlink.com 1.10,2013-07-26 11:58:00,
2013-07-26 07:13:00,59.9,55.0,29.91,WNW,300,8.0,9.0,84,0.00,,,0.00,weatherlink.com 1.10,2013-07-26 12:13:00,
2013-07-26 07:28:00,60.2,55.0,29.91,North,349,2.0,10.0,83,0.00,,,0.00,weatherlink.com 1.10,2013-07-26 12:28:00,
2013-07-26 07:43:00,60.9,55.0,29.91,WSW,242,1.0,10.0,81,0.00,,,0.00,weatherlink.com 1.10,2013-07-26 12:43:00,
2013-07-26 07:58:00,61.0,54.0,29.92,West,266,0.0,13.0,79,0.00,,,0.00,weatherlink.com 1.10,2013-07-26 12:58:00,
2013-07-26 08:13:00,60.8,55.0,29.93,WNW,298,6.0,11.0,80,0.00,,,0.00,weatherlink.com 1.10,2013-07-26 13:13:00,
2013-07-26 08:28:00,60.7,55.0,29.93,WSW,254,6.0,14.0,80,0.00,,,0.00,weatherlink.com 1.10,2013-07-26 13:28:00,
2013-07-26 08:43:00,61.0,55.0,29.93,WNW,289,6.0,13.0,80,0.00,,,0.00,weatherlink.com 1.10,2013-07-26 13:43:00,
2013-07-26 08:58:00,61.1,55.0,29.93,West,269,3.0,10.0,81,0.00,,,0.00,weatherlink.com 1.10,2013-07-26 13:58:00,
2013-07-26 09:13:00,60.8,55.0,29.93,West,275,4.0,12.0,82,0.00,,,0.00,weatherlink.com 1.10,2013-07-26 14:13:00,
2013-07-26 09:28:00,60.7,55.0,29.93,West,275,7.0,13.0,82,0.00,,,0.00,weatherlink.com 1.10,2013-07-26 14:28:00,
2013-07-26 09:43:00,61.0,56.0,29.93,WNW,288,8.0,12.0,82,0.00,,,0.00,weatherlink.com 1.10,2013-07-26 14:43:00,
2013-07-26 09:58:00,61.7,56.0,29.94,NW,314,3.0,11.0,80,0.00,,,0.00,weatherlink.com 1.10,2013-07-26 14:58:00,
2013-07-26 10:13:00,62.2,56.0,29.93,North,5,4.0,10.0,80,0.00,,,0.00,weatherlink.com 1.10,2013-07-26 15:13:00,
2013-07-26 10:28:00,63.5,56.0,29.94,NW,313,4.0,13.0,77,0.00,,,0.00,weatherlink.com 1.10,2013-07-26 15:28:00,
2013-07-26 10:43:00,62.5,56.0,29.95,NW,305,5.0,13.0,80,0.00,,,0.00,weatherlink.com 1.10,2013-07-26 15:43:00,
2013-07-26 10:58:00,63.2,56.0,29.95,North,353,6.0,9.0,77,0.00,,,0.00,weatherlink.com 1.10,2013-07-26 15:58:00,
2013-07-26 11:13:00,65.1,56.0,29.94,WNW,294,4.0,14.0,72,0.00,,,0.00,weatherlink.com 1.10,2013-07-26 16:13:00,
2013-07-26 11:28:00,63.4,56.0,29.95,NNE,13,7.0,17.0,77,0.00,,,0.00,weatherlink.com 1.10,2013-07-26 16:28:00,
2013-07-26 11:43:00,64.1,56.0,29.95,NNE,22,5.0,8.0,76,0.00,,,0.00,weatherlink.com 1.10,2013-07-26 16:43:00,
2013-07-26 12:13:00,65.5,56.0,29.96,NE,45,0.0,14.0,71,0.00,,,0.00,weatherlink.com 1.10,2013-07-26 17:13:00,
2013-07-26 12:28:00,65.6,56.0,29.97,North,7,2.0,15.0,71,0.00,,,0.00,weatherlink.com 1.10,2013-07-26 17:28:00,
2013-07-26 12:43:00,66.3,56.0,29.98,North,358,8.0,14.0,70,0.00,,,0.00,weatherlink.com 1.10,2013-07-26 17:43:00,
2013-07-26 12:58:00,63.1,58.0,29.98,NNE,26,3.0,13.0,82,0.00,,,0.00,weatherlink.com 1.10,2013-07-26 17:58:00,
2013-07-26 13:12:00,62.4,57.0,29.99,WNW,289,10.0,21.0,83,0.00,,,0.00,weatherlink.com 1.10,2013-07-26 18:12:00,
2013-07-26 13:28:00,62.4,58.0,29.99,WNW,295,8.0,12.0,86,0.00,,,0.00,weatherlink.com 1.10,2013-07-26 18:28:00,
2013-07-26 13:43:00,66.0,58.0,29.98,North,350,3.0,15.0,75,0.00,,,0.00,weatherlink.com 1.10,2013-07-26 18:43:00,
2013-07-26 13:58:00,64.8,55.0,29.98,North,355,6.0,19.0,71,0.01,,,0.01,weatherlink.com 1.10,2013-07-26 18:58:00,
2013-07-26 14:13:00,66.4,56.0,29.97,NNW,332,22.0,22.0,69,0.01,,,0.01,weatherlink.com 1.10,2013-07-26 19:13:00,
2013-07-26 14:43:00,67.1,55.0,29.98,NNW,337,8.0,22.0,65,0.01,,,0.01,weatherlink.com 1.10,2013-07-26 19:43:00,
2013-07-26 14:59:00,65.5,55.0,29.98,North,351,5.0,17.0,68,0.00,,,0.01,weatherlink.com 1.10,2013-07-26 19:59:00,
2013-07-26 15:14:00,65.4,55.0,29.99,NNW,345,7.0,15.0,68,0.00,,,0.01,weatherlink.com 1.10,2013-07-26 20:14:00,
2013-07-26 15:29:00,64.8,54.0,29.99,North,360,12.0,18.0,68,0.00,,,0.01,weatherlink.com 1.10,2013-07-26 20:29:00,
2013-07-26 15:44:00,66.1,54.0,30.00,NNE,25,7.0,21.0,66,0.00,,,0.01,weatherlink.com 1.10,2013-07-26 20:44:00,
2013-07-26 15:59:00,65.5,53.0,30.01,NW,316,7.0,19.0,65,0.00,,,0.01,weatherlink.com 1.10,2013-07-26 20:59:00,
2013-07-26 16:14:00,65.2,52.0,30.01,North,358,10.0,18.0,63,0.00,,,0.01,weatherlink.com 1.10,2013-07-26 21:14:00,
2013-07-26 16:29:00,65.2,52.0,30.02,North,358,7.0,16.0,62,0.00,,,0.01,weatherlink.com 1.10,2013-07-26 21:29:00,
2013-07-26 16:44:00,65.2,53.0,30.02,NW,321,5.0,17.0,64,0.00,,,0.01,weatherlink.com 1.10,2013-07-26 21:44:00,
2013-07-26 16:59:00,65.0,52.0,30.03,NW,320,2.0,15.0,63,0.00,,,0.01,weatherlink.com 1.10,2013-07-26 21:59:00,
2013-07-26 17:14:00,64.7,53.0,30.04,NNW,331,5.0,12.0,66,0.00,,,0.01,weatherlink.com 1.10,2013-07-26 22:14:00,
2013-07-26 17:29:00,64.6,53.0,30.04,NW,320,2.0,15.0,66,0.00,,,0.01,weatherlink.com 1.10,2013-07-26 22:29:00,
2013-07-26 17:44:00,63.6,54.0,30.05,North,349,10.0,20.0,72,0.00,,,0.01,weatherlink.com 1.10,2013-07-26 22:44:00,
2013-07-26 17:59:00,61.2,53.0,30.05,NNW,334,9.0,18.0,74,0.00,,,0.01,weatherlink.com 1.10,2013-07-26 22:59:00,
2013-07-26 18:14:00,61.9,52.0,30.05,NNW,338,10.0,21.0,70,0.00,,,0.01,weatherlink.com 1.10,2013-07-26 23:14:00,
2013-07-26 18:29:00,61.8,51.0,30.05,North,351,6.0,17.0,68,0.00,,,0.01,weatherlink.com 1.10,2013-07-26 23:29:00,
2013-07-26 18:44:00,62.1,52.0,30.05,NNE,20,3.0,21.0,69,0.00,,,0.01,weatherlink.com 1.10,2013-07-26 23:44:00,
2013-07-26 18:59:00,61.8,52.0,30.05,NNE,29,9.0,16.0,70,0.00,,,0.01,weatherlink.com 1.10,2013-07-26 23:59:00,
2013-07-26 19:14:00,61.8,52.0,30.05,NNW,341,7.0,14.0,70,0.00,,,0.01,weatherlink.com 1.10,2013-07-27 00:14:00,
2013-07-26 19:29:00,62.2,51.0,30.05,NNE,23,4.0,15.0,67,0.00,,,0.01,weatherlink.com 1.10,2013-07-27 00:29:00,
2013-07-26 19:44:00,62.0,50.0,30.05,NW,325,6.0,13.0,65,0.00,,,0.01,weatherlink.com 1.10,2013-07-27 00:44:00,
2013-07-26 19:59:00,60.9,50.0,30.06,North,356,6.0,16.0,67,0.00,,,0.01,weatherlink.com 1.10,2013-07-27 00:59:00,
2013-07-26 20:14:00,60.1,50.0,30.06,NE,34,2.0,12.0,70,0.00,,,0.01,weatherlink.com 1.10,2013-07-27 01:14:00,
2013-07-26 20:29:00,60.0,51.0,30.06,NW,325,2.0,12.0,71,0.00,,,0.01,weatherlink.com 1.10,2013-07-27 01:29:00,
2013-07-26 20:44:00,59.6,51.0,30.07,NNE,22,9.0,15.0,73,0.00,,,0.01,weatherlink.com 1.10,2013-07-27 01:44:00,
2013-07-26 20:59:00,58.3,50.0,30.08,NW,324,9.0,17.0,74,0.00,,,0.01,weatherlink.com 1.10,2013-07-27 01:59:00,
2013-07-26 21:14:00,58.2,49.0,30.07,NNE,14,6.0,14.0,71,0.00,,,0.01,weatherlink.com 1.10,2013-07-27 02:14:00,
2013-07-26 21:29:00,58.0,49.0,30.08,NNW,348,6.0,14.0,71,0.00,,,0.01,weatherlink.com 1.10,2013-07-27 02:29:00,
2013-07-26 21:44:00,57.4,50.0,30.08,North,2,4.0,12.0,75,0.00,,,0.01,weatherlink.com 1.10,2013-07-27 02:44:00,
2013-07-26 21:59:00,57.0,50.0,30.09,NNW,327,1.0,10.0,77,0.00,,,0.01,weatherlink.com 1.10,2013-07-27 02:59:00,
2013-07-26 22:14:00,57.1,50.0,30.09,NNE,27,4.0,11.0,77,0.00,,,0.01,weatherlink.com 1.10,2013-07-27 03:14:00,
2013-07-26 22:29:00,56.8,50.0,30.08,NNE,24,6.0,14.0,78,0.00,,,0.01,weatherlink.com 1.10,2013-07-27 03:29:00,
2013-07-26 22:44:00,56.1,49.0,30.09,NNE,22,8.0,8.0,78,0.00,,,0.01,weatherlink.com 1.10,2013-07-27 03:44:00,
2013-07-26 23:00:00,55.2,50.0,30.09,NNW,346,3.0,7.0,81,0.00,,,0.01,weatherlink.com 1.10,2013-07-27 04:00:00,
2013-07-26 23:15:00,54.9,49.0,30.10,NNE,19,5.0,9.0,81,0.00,,,0.01,weatherlink.com 1.10,2013-07-27 04:15:00,
2013-07-26 23:30:00,54.3,49.0,30.10,NNW,337,3.0,6.0,82,0.00,,,0.01,weatherlink.com 1.10,2013-07-27 04:30:00,
2013-07-26 23:45:00,54.2,49.0,30.10,NW,311,0.0,6.0,81,0.00,,,0.01,weatherlink.com 1.10,2013-07-27 04:45:00,